{"data":{"norad_id":65890,"epoch":"2026-05-24T22:18:06.023232Z","epoch_age_seconds":74941,"freshness":"FRESH","line1":"1 65890U 25224J   26144.92923638  .00020337  00000+0  69684-3 0  9992","line2":"2 65890  53.1591  17.4579 0000395  34.5579 325.5447 15.30200828 36544","mean_motion":15.30200828,"eccentricity":3.95e-5,"inclination_deg":53.1591,"raan_deg":17.4579,"arg_perigee_deg":34.5579,"mean_anomaly_deg":325.5447,"bstar":0.00069684,"rev_number":3654,"period_min":94.105294785529,"perigee_km":474.9418898526,"apogee_km":475.48330447077,"semimajor_km":6853.3495971617,"source":"CELESTRAK","updated_at":"2026-05-25T13:38:20.980513Z"}}